Weather History for K2D5 - May, 2013

Change the Weather History Date:

Thursday, May 9, 2013

  Actual Average (KABR) Record (KABR)
Temperature  
Mean Temperature 52 °F 54 °F  
Max Temperature 64 °F 67 °F 95 °F (1911)
Min Temperature 39 °F 42 °F 21 °F (1966)
Degree Days  
Heating Degree Days 14 11  
Month to date heating degree days 111  
Since 1 July heating degree days 8282  
Cooling Degree Days 0 0  
Month to date cooling degree days 0  
Year to date cooling degree days 2  
Growing Degree Days 2 (Base 50)    
Moisture  
Dew Point 29 °F    
Average Humidity 46    
Maximum Humidity 76    
Minimum Humidity 21    
Precipitation  
Precipitation 0.00 in 0.11 in 1.68 in (1927)
Month to date precipitation 0.92  
Year to date precipitation 4.95  
Sea Level Pressure  
Sea Level Pressure 30.12 in    
Wind  
Wind Speed 16 mph (NNE)    
Max Wind Speed 25 mph    
Max Gust Speed 33 mph    
Visibility 10 miles    
Events      
T = Trace of Precipitation, MM = Missing Value Source: NWS Daily Summary

Daily Weather History Graph

Daily Weather History Graph

Search for Another Location

Airport or City:

Trip Planner

Search our weather history database for the weather conditions in past years. The results will help you decide how hot, cold, wet, or windy it might be!

Date:

Astronomy

May. 09, 2013 Rise Set
Actual Time 6:06 AM CDT 8:51 PM CDT
Civil Twilight 5:32 AM CDT 9:25 PM CDT
Nautical Twilight 4:48 AM CDT 10:09 PM CDT
Astronomical Twilight 3:58 AM CDT 11:01 PM CDT
Moon 5:54 AM CDT (5/9) 8:47 PM CDT (5/9)
Length of Visible Light 15h 53m
Length of Day
14h 44m
Waning Crescent, 0% of the Moon is Illuminated
May 9
Waning Crescent
May 9
New
May 17
First Quarter
May 24
Full
May 31
Last Quarter

Hourly Weather History & Observations

Time (CDT) Temp. Windchill Dew Point Humidity Pressure Visibility Wind Dir Wind Speed Gust Speed Precip Events Conditions
12:15 AM 48.2 °F - 35.6 °F 62% 30.09 in 10.0 mi North 18.4 mph - N/A   Unknown
12:35 AM 46.4 °F 39.5 °F 35.6 °F 66% 30.09 in 10.0 mi North 17.3 mph - N/A   Unknown
1:15 AM 46.4 °F 39.8 °F 33.8 °F 62% 30.09 in 10.0 mi North 16.1 mph - N/A   Unknown
1:55 AM 44.6 °F 38.1 °F 33.8 °F 66% 30.10 in 10.0 mi North 13.8 mph - N/A   Unknown
2:35 AM 42.8 °F 35.8 °F 33.8 °F 70% 30.09 in 10.0 mi North 13.8 mph - N/A   Unknown
2:55 AM 42.8 °F 36.2 °F 33.8 °F 70% 30.09 in 10.0 mi North 12.7 mph - N/A   Unknown
3:15 AM 41.0 °F 35.2 °F 33.8 °F 76% 30.10 in 10.0 mi North 9.2 mph - N/A   Unknown
3:35 AM 41.0 °F 34.7 °F 33.8 °F 76% 30.10 in 10.0 mi North 10.4 mph - N/A   Unknown
3:55 AM 41.0 °F 33.9 °F 32.0 °F 70% 30.10 in 10.0 mi North 12.7 mph - N/A   Unknown
4:35 AM 39.2 °F 32.0 °F 32.0 °F 75% 30.11 in 10.0 mi NNW 11.5 mph - N/A   Unknown
4:55 AM 41.0 °F 33.9 °F 32.0 °F 70% 30.11 in 10.0 mi North 12.7 mph - N/A   Unknown
5:15 AM 39.2 °F 30.8 °F 32.0 °F 75% 30.11 in 10.0 mi North 15.0 mph - N/A   Unknown
5:35 AM 39.2 °F 31.6 °F 32.0 °F 75% 30.12 in 10.0 mi North 12.7 mph - N/A   Unknown
5:55 AM 39.2 °F 31.2 °F 32.0 °F 75% 30.12 in 10.0 mi North 13.8 mph - N/A   Unknown
6:15 AM 39.2 °F 31.2 °F 32.0 °F 75% 30.12 in 10.0 mi North 13.8 mph - N/A   Unknown
6:55 AM 39.2 °F 30.8 °F 32.0 °F 75% 30.13 in 10.0 mi North 15.0 mph - N/A   Unknown
7:15 AM 39.2 °F 30.5 °F 32.0 °F 75% 30.14 in 10.0 mi North 16.1 mph - N/A   Unknown
7:55 AM 42.8 °F 33.8 °F 32.0 °F 66% 30.15 in 10.0 mi North 21.9 mph - N/A   Unknown
8:15 AM 44.6 °F 36.1 °F 32.0 °F 61% 30.15 in 10.0 mi North 21.9 mph 28.8 mph N/A   Unknown
8:35 AM 44.6 °F 35.9 °F 32.0 °F 61% 30.16 in 10.0 mi North 23.0 mph - N/A   Unknown
9:15 AM 46.4 °F 39.2 °F 32.0 °F 57% 30.17 in 10.0 mi North 18.4 mph - N/A   Unknown
9:35 AM 48.2 °F - 32.0 °F 54% 30.17 in 10.0 mi North 18.4 mph - N/A   Unknown
10:35 AM 53.6 °F - 33.8 °F 47% 30.18 in 10.0 mi NNE 17.3 mph 25.3 mph N/A   Unknown
10:55 AM 55.4 °F - 32.0 °F 41% 30.17 in 10.0 mi NNE 24.2 mph 28.8 mph N/A   Unknown
11:35 AM 55.4 °F - 32.0 °F 41% 30.17 in 10.0 mi NNE 21.9 mph 29.9 mph N/A   Unknown
12:15 PM 57.2 °F - 28.4 °F 33% 30.15 in 10.0 mi North 25.3 mph 33.4 mph N/A   Unknown
12:35 PM 59.0 °F - 30.2 °F 34% 30.15 in 10.0 mi North 24.2 mph 29.9 mph N/A   Unknown
12:55 PM 59.0 °F - 30.2 °F 34% 30.15 in 10.0 mi North 24.2 mph 28.8 mph N/A   Unknown
1:15 PM 59.0 °F - 30.2 °F 34% 30.14 in 10.0 mi North 20.7 mph 27.6 mph N/A   Unknown
1:35 PM 60.8 °F - 28.4 °F 29% 30.14 in 10.0 mi NNE 19.6 mph 31.1 mph N/A   Unknown
1:55 PM 62.6 °F - 28.4 °F 27% 30.13 in 10.0 mi North 23.0 mph 29.9 mph N/A   Unknown
2:35 PM 64.4 °F - 26.6 °F 24% 30.13 in 10.0 mi North 20.7 mph 29.9 mph N/A   Unknown
2:55 PM 64.4 °F - 24.8 °F 22% 30.13 in 10.0 mi North 24.2 mph 32.2 mph N/A   Unknown
3:15 PM 64.4 °F - 24.8 °F 22% 30.12 in 10.0 mi NNE 24.2 mph 29.9 mph N/A   Unknown
3:35 PM 64.4 °F - 23.0 °F 21% 30.12 in 10.0 mi North 17.3 mph 26.5 mph N/A   Unknown
3:55 PM 64.4 °F - 23.0 °F 21% 30.12 in 10.0 mi North 19.6 mph 27.6 mph N/A   Unknown
4:15 PM 64.4 °F - 23.0 °F 21% 30.11 in 10.0 mi NNE 19.6 mph 28.8 mph N/A   Unknown
4:35 PM 64.4 °F - 23.0 °F 21% 30.11 in 10.0 mi NNE 19.6 mph 26.5 mph N/A   Unknown
4:55 PM 64.4 °F - 24.8 °F 22% 30.10 in 10.0 mi NNE 18.4 mph 28.8 mph N/A   Clear
5:15 PM 64.4 °F - 23.0 °F 21% 30.10 in 10.0 mi NNE 18.4 mph 25.3 mph N/A   Clear
5:35 PM 64.4 °F - 23.0 °F 21% 30.10 in 10.0 mi NNE 21.9 mph 25.3 mph N/A   Clear
5:55 PM 64.4 °F - 24.8 °F 22% 30.09 in 10.0 mi NNE 18.4 mph 23.0 mph N/A   Clear
6:15 PM 64.4 °F - 23.0 °F 21% 30.09 in 10.0 mi NNE 16.1 mph 21.9 mph N/A   Clear
6:35 PM 64.4 °F - 23.0 °F 21% 30.10 in 10.0 mi NNE 16.1 mph 19.6 mph N/A   Clear
6:55 PM 64.4 °F - 23.0 °F 21% 30.09 in 10.0 mi NNE 15.0 mph - N/A   Clear
7:15 PM 62.6 °F - 23.0 °F 22% 30.09 in 10.0 mi NNE 17.3 mph - N/A   Clear
7:35 PM 62.6 °F - 24.8 °F 24% 30.09 in 10.0 mi NNE 15.0 mph - N/A   Unknown
7:55 PM 62.6 °F - 24.8 °F 24% 30.10 in 10.0 mi NNE 16.1 mph 20.7 mph N/A   Unknown
8:15 PM 59.0 °F - 26.6 °F 29% 30.11 in 10.0 mi NNE 10.4 mph - N/A   Unknown
8:35 PM 57.2 °F - 26.6 °F 31% 30.11 in 10.0 mi NNE 9.2 mph - N/A   Unknown
8:55 PM 53.6 °F - 28.4 °F 38% 30.12 in 10.0 mi North 8.1 mph - N/A   Unknown
9:15 PM 50.0 °F - 28.4 °F 43% 30.12 in 5.0 mi North 6.9 mph - N/A   Haze
9:35 PM 48.2 °F - 28.4 °F 46% 30.12 in 10.0 mi NNE 6.9 mph - N/A   Unknown
9:55 PM 46.4 °F 41.9 °F 28.4 °F 50% 30.13 in 10.0 mi North 9.2 mph - N/A   Unknown
10:15 PM 46.4 °F 42.4 °F 30.2 °F 53% 30.15 in 10.0 mi NE 8.1 mph - N/A   Unknown
10:55 PM 44.6 °F 40.7 °F 28.4 °F 53% 30.16 in 10.0 mi North 6.9 mph - N/A   Unknown
11:15 PM 44.6 °F 40.7 °F 30.2 °F 57% 30.16 in 10.0 mi North 6.9 mph - N/A   Unknown
11:35 PM 42.8 °F 38.6 °F 32.0 °F 66% 30.16 in 10.0 mi NNE 6.9 mph - N/A   Unknown
11:55 PM 42.8 °F 39.3 °F 32.0 °F 66% 30.16 in 10.0 mi North 5.8 mph - N/A   Unknown